Location: Shannon
(40.5500°S, 175.4167°E)
Time: 12:26:26
(UTC+00:00)

ACS3 Solar Sail - Pass Details

Date: 17 November 2025
Orbit: 888 x 1002 km, 97.3° (Epoch: 09 December)

Event Time Altitude Azimuth Distance (km) Brightness Sun altitude
Exits shadow 15:30:53 - 348° (NNW) 2,837 3.8 -13.3°
Reaches altitude 10° 15:31:03 10° 348° (NNW) 2,780 3.7 -13.3°
Maximum altitude 15:37:02 45° 276° (W) 1,369 2.2 -12.4°
Drops below altitude 10° 15:43:08 10° 204° (SSW) 2,823 4.4 -11.5°
Sets 15:45:48 0° 198° (SSW) 3,775 5.1 -11.1°
